Погода в Кортина-д`Ампеццо

Италия     46°32′06″N   12°08′17″E
темп.,
°C
ветер,
м/с
пор.,
м/с
влажн.,
%
обл.,
%
осадки,
мм/ч
давл.,
гПа
погр.,
м
14 апреля, ср
ср1423:00−11ссз359358 0.0 103166
02:00−13ссз459414 0.0 103260
05:00−11ссз348210 0.0 103086
08:00−8ссз33692 0.0 1028185
11:00−2с22462 0.0 10241252
14:00+1ссз124146 0.0 10211929
17:00+1св014890 0.1 10191619
20:00−6ююв119490 0.8 102431
15 апреля, чт
чт1523:00−5ссв119699 1.0 1025123
02:00−6ссв1196100 4.3 1025127
05:00−7ссв1296100 2.4 1025113
08:00−6с128789 2.7 1025179
11:00−1всв1172100 0.1 10221082
14:00−1ююв2284100 1.6 1021716
17:00−2ююв2290100 3.2 1020484
20:00−5юз019855 4.9 102213
16 апреля, пт
пт1623:00−6сз119877 0.6 102531
02:00−8ссз219742 0.9 102622
05:00−11ссз229726 0.0 102727
08:00−6ссз22875 0.0 102391
11:00+1вюв11735 0.0 1019909
14:00+3ю116874 0.1 10171618
17:00+1ююв117688 0.6 1017766
20:00−3сз0095100 1.4 101910
17 апреля, сб
сб1723:00−6ссз1196100 0.0 102212
02:00−6ссз2296100 0.0 102129
05:00−7ссз239637 0.0 102044
08:00−4с238873 0.0 1018115
11:00+2ссв2271100 0.0 1014801
14:00+4с2265100 0.0 10121291
17:00+4ссв1267100 0.1 10111147
20:00−1с1194100 0.3 101423
18 апреля, вс
вс1823:00−3с2392100 0.0 101760
02:00−5ссз3492100 0.0 101876
05:00−5с3490100 0.0 101796
08:00−2с2381100 0.0 1017206
11:00+2с2268100 0.0 1015857
14:00+3с1273100 0.3 10141002
17:00+2св1290100 1.4 1014428
20:000с2397100 4.2 1016140